Regional Weather Roundup
Issued by NWS Charleston, SC

Current Version | Previous Version | Graphics & Text | Print | Product List | Glossary On
Versions: 1 2 3 4 5 6 7 8 9 10 11 12 13 14 15 16 17 18 19 20 21 22 23 24 25 26 27 28 29 30 31 32 33 34 35 36 37 38 39 40 41 42 43 44 45 46 47 48 49 50
000
ASUS42 KCHS 220012
RWRCHS

REGIONAL WEATHER ROUNDUP
NATIONAL WEATHER SERVICE CHARLESTON SC
700 PM EST SAT JAN 21 2017

NOTE: "FAIR" INDICATES FEW OR NO CLOUDS BELOW 12,000 FEET WITH NO
SIGNIFICANT WEATHER AND/OR OBSTRUCTIONS TO VISIBILITY.

NOT ALL STATIONS ARE QUALITY CONTROLLED. USE DATA WITH CAUTION...
ESPECIALLY DEWPOINT OBSERVATIONS.

SCZ027-030-031-034>040-042>050-220100-
...SOUTHEAST SOUTH CAROLINA...

CITY           SKY/WX    TMP DP  RH WIND       PRES   REMARKS
N CHARLESTON   CLOUDY    61  59  93 S8        29.75S
6HR MIN TEMP:  61; 6HR MAX TEMP:  69; 6HR PCP:  0.30;

WATERFRONT PRK   N/A     61  60  97 SW5       29.74S
MOUNT PLEASANT MOCLDY    63  61  94 S5        29.75F
JOHNS ISLAND   CLOUDY    61  61 100 S10       29.78R
PINOPOLIS        N/A    N/A N/A N/A SW7       29.64R
MONCKS CORNER  CLOUDY    61  59  94 SW5       29.73F
SUMMERVILLE    CLOUDY   N/A N/A N/A S6        29.74S
BEAUFORT MCAS  LGT RAIN  62  60  93 S9        29.79R
6HR MIN TEMP:  62; 6HR MAX TEMP:  72; 6HR PCP:  0.52;

BEAUFORT ARPT  LGT RAIN  61  59  94 SW8       29.79R
HILTON HEAD IS CLOUDY    61  61 100 S10       29.81R
WALTERBORO     RAIN      61  59  94 S8        29.76R
ALLENDALE      MOCLDY    61  59  94 CALM      29.68F

...SOUTHERN MIDLANDS AND PEE DEE...

CITY           SKY/WX    TMP DP  RH WIND       PRES   REMARKS
GEORGETOWN     LGT RAIN  63  63 100 SW14      29.75R
KINGSTREE      RAIN      64  63  94 E5        29.71F
ORANGEBURG     CLOUDY    63  60  90 W3        29.69R
6HR MIN TEMP:  63; 6HR MAX TEMP:  70; 6HR PCP:  1.32;

BARNWELL       FAIR      63  61  94 CALM      29.68F
AIKEN          FAIR      61  55  82 S7G16     29.69R
MANNING        LGT RAIN  63  61  94 S5        29.65F
COLUMBIA       CLOUDY    66  60  81 S8        29.65R
6HR MIN TEMP:  64; 6HR MAX TEMP:  67; 6HR PCP:  0.44;

SUMTER         CLOUDY    65  62  90 S12       29.63R
6HR MIN TEMP:  64; 6HR MAX TEMP:  65; 6HR PCP:  0.39;

FLORENCE       LGT RAIN  65  65 100 S24G33    29.63F
6HR MIN TEMP:  64; 6HR MAX TEMP:  67; 6HR PCP:  0.33;

MYRTLE BEACH   RAIN      64  61  88 S9        29.75F FOG
N MYRTLE BEACH RAIN      64  64 100 SE8       29.73F FOG
6HR MIN TEMP:  61; 6HR MAX TEMP:  63; 6HR PCP:  0.04;


$$

GAZ063-065-086>088-099>101-113>116-118-119-134>141-150-220100-
...SOUTHEAST GEORGIA...

CITY           SKY/WX    TMP DP  RH WIND       PRES   REMARKS
SAVANNAH ARPT  RAIN      61  58  90 S8        29.77S
6HR MIN TEMP:  61; 6HR MAX TEMP:  79; 6HR PCP:  0.66;

HUNTER AAF     CLOUDY    61  61 100 S6        29.77R
6HR MIN TEMP:  60; 6HR MAX TEMP:  74; 6HR PCP:  0.81;

FORT STEWART   LGT RAIN  61  59  94 SE7G17    29.72F FOG
6HR MIN TEMP:  61; 6HR MAX TEMP:  79; 6HR PCP:  0.97;

STATESBORO     CLOUDY    62  32  32 S6        29.68F
SYLVANIA       MOCLDY   N/A N/A N/A S9        29.67F
CLAXTON        FAIR     N/A N/A N/A SE6       29.69F

...CSRA...CENTRAL AND FAR SOUTHEAST GEORGIA...

CITY           SKY/WX    TMP DP  RH WIND       PRES   REMARKS
THOMSON        CLOUDY    64  62  93 W5        29.71R
AUGUSTA-BUSH   MOCLDY    63  58  83 S7        29.67R
6HR MIN TEMP:  63; 6HR MAX TEMP:  68; 6HR PCP:  0.36;

AUGUSTA-DANIEL MOCLDY    63  56  78 S7        29.67R
SWAINSBORO     FAIR      61  59  94 SW5       29.70R
VIDALIA        CLOUDY    63  63 100 S7        29.70R
EASTMAN        FAIR      62  62 100 CALM      29.73R
HAZLEHURST     FAIR      62  62 100 S8        29.70R
ALMA           CLOUDY    61  61 100 S10       29.74R
6HR MIN TEMP:  60; 6HR MAX TEMP:  77; 6HR PCP:  1.79;

WAYCROSS       RAIN      64  64 100 S8        29.75S
JESUP          RAIN      63  59  88 S6        29.77F
BAXLEY         FAIR      63  63 100 S10       29.73R
BRUNSWICK      RAIN      63  63 100 S7        29.82F
SAINT SIMONS   LGT RAIN  62  61  96 S3        29.82F
6HR MIN TEMP:  62; 6HR MAX TEMP:  70; 6HR PCP:  0.99;


$$

SCZ027-028-034-036>038-045-046-048>050-GAZ119-141-220100-
...LAKE AND SUPPLEMENTAL COASTAL OBSERVATIONS...

STATION/POSITION TIME  TEMP    WIND        PRES    WAVE   SWELL
                       AIR SEA DIR/SP/G            HT/PER HT/PER/DIR
                 (UTC) (F)     (DEG/KT/KT) (MB)    (FT/S) (FT/S/D)
WINYAH BAY       2245   60     100/  2     1006.0
LAKE MURRAY      2320   62     160/  4/  6 1003.0R
ACE BASIN NERRS  2245   60        CALM     1008.0
FORT PULASKI     2342      59  230/  7/ 11 1009.8R
SAPELO ISLAND    2300   62        CALM     1010.0

$$

ANZ835-935-AMZ111-154-330-350-352-354-370-450-454-472-220100-
...C-MAN AND BUOY OBSERVATIONS...

STATION/POSITION TIME  TEMP    WIND        PRES    WAVE   SWELL
                       AIR SEA DIR/SP/G            HT/PER HT/PER/DIR
                 (UTC) (F)     (DEG/KT/KT) (MB)    (FT/S) (FT/S/D)
BUOY 41004       2350   64 66  240/ 17/ 23 1008.6R   3/ 4   2/100/11
BUOY 41008       2350   62 62  220/  4/  6 1009.7R   2/12   2/ 60/12
FOLLY BEACH CMAN 2300   59     240/  5/  8 1008.5R
CAPERS NEARSHORE 2308   58 57  230/ 16/ 21 1006.9R
FRIPP NEARSHORE  2308   60 59  200/ 10/ 14 1006.9F


STATION/POSITION TIME  TEMP    WIND        PRES    WAVE   SWELL
                       AIR SEA DIR/SP/G            HT/PER HT/PER/DIR
                 (UTC) (F)     (DEG/KT/KT) (MB)    (FT/S) (FT/S/D)
5E ST. MARYS GA  2330      64                N/A     3/12   2/ 80/12
FRYING PAN BUOY  2350   71 70  160/ 10/ 12 1007.8F   3/11   2/110/11
BUOY 41025       2350   72 74  160/ 14/ 17 1008.8F   4/11   3/ 60/11
CAPE LOOKOUT NC  2300   60      40/  9/ 11 1008.1F
BUOY 41002       2350   70 71  140/ 12/ 16 1011.1R   4/11   3/ 40/11
BUOY 41010       NOT AVBL
ST AUGUSTINE FL  0000   76 64  210/  4/  4 1010.1R


$$



USA.gov is the U.S. government's official web portal to all federal, state and local government web resources and services.